Location: *
(51.8167°N, 12.5000°E)
Time: 11:04:52
(UTC+00:00)

Cosmos 1821 Rocket - Pass Details

Date: 16 September 2019
Orbit: 944 x 1005 km, 82.9° (Epoch: 19 October)

Event Time Altitude Azimuth Distance (km) Brightness Sun altitude
Rises 19:49:19 0° 351° (N) 3,681 7.7 -21.8°
Reaches altitude 10° 19:51:56 10° 357° (N) 2,720 6.8 -22.1°
Maximum altitude 19:57:59 51° 73° (ENE) 1,186 4.2 -22.9°
Enters shadow 19:59:05 46° 107° (ESE) 1,266 4.1 -23.0°
